Location: Bydgoszcz
(53.1235°N, 18.0084°E)
Time: 19:55:39
(UTC+02:00)

ISS - Visible Passes

Search period start: 16 April 2026 00:00
Search period end: 26 April 2026 00:00
Orbit: 415 x 424 km, 51.6° (Epoch: 15 April)

Date Brightness Start Highest point End Pass type
(mag) Time Alt. Az. Time Alt. Az. Time Alt. Az.
21 Apr -1.5 04:42:05 10° S 04:44:25 18° SE 04:46:46 10° E visible
22 Apr -1.2 03:55:39 10° SSE 03:57:11 13° SE 03:58:44 10° ESE visible
23 Apr -2.5 04:42:58 10° SW 04:46:00 31° SSE 04:49:03 10° E visible
24 Apr -2.2 03:57:01 17° S 03:58:41 24° SSE 04:01:28 10° E visible
25 Apr -1.8 03:11:14 18° SSE 03:11:23 18° SE 03:13:44 10° E visible
25 Apr -3.3 04:44:25 10° WSW 04:47:42 50° SSE 04:51:00 10° E visible
